Location: Ferchesar
(52.6477°N, 12.4298°E)
Time: 09:22:23
(UTC+01:00)

AO-73 - Pass Details

Date: 27 October 2021
Orbit: 581 x 661 km, 97.6° (Epoch: 28 November)

Event Time Altitude Azimuth Distance (km) Brightness Sun altitude
Rises 05:17:54 0° 20° (NNE) 2,826 ? -24.7°
Reaches altitude 10° 05:20:12 10° 30° (NNE) 1,927 ? -24.4°
Maximum altitude 05:24:03 35° 96° (E) 977 ? -23.8°
Drops below altitude 10° 05:27:55 10° 163° (SSE) 1,945 ? -23.2°
Sets 05:30:15 0° 172° (S) 2,857 ? -22.9°
